OneWeb SL0619

operational
NORAD ID: 55160 Int'l Des: 2023-004 Owner: ONEWEBN Country: UK Constellation: oneweb
LEOCIRCULARPOLARONEWEB_TYPE

OneWeb SL0619について

説明を読み込み中...

リアルタイム位置

3D地球を読み込み中...

次回通過

高度履歴

Altitude vs Time

uPlot chart will show altitude changes over time

軌道要素

1 55160U 23004W 25351.83951599 -.00000001 00000-0 -36811-4 0 9997
2 55160 87.9116 41.8944 0002215 105.6816 254.4560 13.17650028143713
Epoch: Dec 17, 2025 • Age: 15 hours

現在のステータス

高度 1205.8 km
速度 7.26 km/s
衛星直下点 83.63°N, 166.14°E
打ち上げ日 Jan 10, 2023
運用期間 2.9 years
タイプ internet

技術仕様

分類 Payload
質量 148.00 kg
乾燥質量 140.00 kg
総質量 148.00 kg
長さ 1.30 m
直径 1.00 m
スパン 5.00 m
形状 Trapezoid+2 pan
製造者 ONEWUS
バスタイプ ARROW
フェーズステータス In Orbit
所有者/国 ONEWEBN/UK

大規模コンステレーション

Loading constellations...